Location: Waltman Observatory
(32.5145°N, 90.4450°W)
Time: 23:42:31
(UTC-05:00)

Amateur Radio Satellites - All Passes

Search period start: 02 September 2014 23:12
Search period end: 03 September 2014 23:12
Location: Waltman Observatory, 32.5145°N, 90.4450°W

Satellite Date Start Highest point End Downlink Frequencies (MHz)
Time Altitude Azimuth
MaSat-1 02 Sep 23:28:44 23:32:10 25° 257° (WSW) 23:35:11 437.345 MHz
FUNcube-1 02 Sep 23:42:05 23:44:59 18° 265° (W) 23:47:55 145.950 - 145.970 MHz USB
KITSAT 1 03 Sep 00:35:44 00:42:21 27° 309° (NW) 00:49:00 435.175 FM
Sapphire 03 Sep 00:40:20 00:42:34 12° 50° (NE) 00:44:48 437.095 MHz 1200 baud AX-25 AFSK
PCSat 03 Sep 01:07:49 01:12:08 24° 55° (NE) 01:16:25 145.825 MHz
Oscar 10/S400 03 Sep 01:28:32 02:33:06 60° 217° (SW) 12:13:11 145.825 - 145.975 CW/USB, Beacon 145.810 USB
Oscar 16 03 Sep 01:46:33 01:50:51 26° 96° (E) 01:55:08 437.025 USB, Beacon 2401.1428
ITAMSAT 1 03 Sep 01:54:15 01:55:13 11° 92° (E) 01:56:10 435.822 SSB
Uribyol 2 03 Sep 02:01:34 02:04:24 15° 94° (E) 02:07:15 436.500 FM
Sapphire 03 Sep 02:21:11 02:26:37 83° 246° (WSW) 02:32:02 437.095 MHz 1200 baud AX-25 AFSK
AO-27 03 Sep 02:21:25 02:25:30 23° 96° (E) 02:29:35 436.795 MHz FM
SO-50 03 Sep 02:46:27 02:50:52 74° 116° (ESE) 02:55:23 436.795 FM
AO-Echo 03 Sep 02:49:16 02:53:51 50° 100° (E) 02:58:28 ?
Oscar 19 03 Sep 02:49:33 02:54:44 71° 285° (WNW) 02:59:52 437.125 CW, 437.150 USB
PCSat 03 Sep 02:50:36 02:55:37 39° 251° (WSW) 03:00:36 145.825 MHz
JAS-1B 03 Sep 02:54:23 03:00:20 45° 98° (E) 03:05:44 435.800 - 435.900 CW/SSB
AO-40 03 Sep 03:05:11 03:42:45 12° 245° (WSW) 04:30:28 Beacon 2401.320
Gurwin Techsat 1B 03 Sep 03:08:54 03:13:34 31° 97° (E) 03:18:11 435.225 FM
Oscar 16 03 Sep 03:25:39 03:30:07 30° 290° (WNW) 03:34:33 437.025 USB, Beacon 2401.1428
ITAMSAT 1 03 Sep 03:29:55 03:35:05 69° 285° (WNW) 03:40:14 435.822 SSB
Uribyol 2 03 Sep 03:39:04 03:44:06 52° 287° (WNW) 03:49:08 436.500 FM
AO-7 03 Sep 03:41:00 03:43:38 12° 92° (E) 03:46:16 29.400 - 29.500 MHz
TMSAT-1 03 Sep 03:57:37 04:02:54 70° 102° (ESE) 04:08:10 436.925 FM
AO-27 03 Sep 04:00:23 04:04:59 33° 289° (WNW) 04:09:35 436.795 MHz FM
OPAL 03 Sep 04:18:21 04:23:08 44° 70° (ENE) 04:27:59 ?
UOSAT-12 03 Sep 04:26:07 04:30:36 58° 115° (ESE) 04:35:11 437.025 FM, 437.400 FM
AO-Echo 03 Sep 04:30:00 04:32:10 13° 294° (WNW) 04:34:21 ?
SO-50 03 Sep 04:30:40 04:31:56 11° 313° (NW) 04:33:13 436.795 FM
JAS-1B 03 Sep 04:46:06 04:50:29 20° 297° (WNW) 04:54:36 435.800 - 435.900 CW/SSB
Gurwin Techsat 1B 03 Sep 04:49:00 04:53:21 26° 291° (WNW) 04:57:42 435.225 FM
Uosat F 03 Sep 05:21:19 05:26:21 83° 103° (ESE) 05:31:21 435.120 FM
AO-7 03 Sep 05:28:59 05:37:19 82° 106° (ESE) 05:45:36 29.400 - 29.500 MHz
TMSAT-1 03 Sep 05:40:13 05:42:09 12° 296° (WNW) 05:44:06 436.925 FM
RS-15 03 Sep 05:46:47 05:55:13 26° 103° (ESE) 06:03:27 29.354 - 29.394 USB, Beacon 29.352 USB
OPAL 03 Sep 05:58:54 06:02:09 17° 264° (W) 06:05:27 ?
UOSAT-12 03 Sep 06:08:37 06:11:07 14° 311° (NW) 06:13:39 437.025 FM, 437.400 FM
STRAND 1 03 Sep 06:09:18 06:13:05 21° 68° (ENE) 06:16:51 ?
JAS-2 03 Sep 06:21:31 06:26:27 34° 99° (E) 06:31:50 435.800 - 435.900 CW/SSB, 435.910 FM
Saudisat 1A 03 Sep 06:24:45 06:28:06 21° 53° (NE) 06:31:26 436.775 MHz
KITSAT 1 03 Sep 06:39:04 06:43:11 14° 42° (NE) 06:47:16 435.175 FM
SO-67 03 Sep 07:11:38 07:13:03 12° 94° (E) 07:14:28 435.3500 MHz FM
Hamsat 03 Sep 07:16:06 07:20:19 51° 285° (WNW) 07:24:27 145.90 MHz
AO-7 03 Sep 07:23:50 07:29:06 19° 303° (WNW) 07:34:22 29.400 - 29.500 MHz
STRAND 1 03 Sep 07:47:21 07:51:59 36° 261° (W) 07:56:39 ?
RS-15 03 Sep 07:55:25 08:06:31 71° 300° (WNW) 08:17:26 29.354 - 29.394 USB, Beacon 29.352 USB
ISS 03 Sep 07:56:37 07:58:56 18° 128° (SE) 08:01:15 145.800 FM
Saudisat 1A 03 Sep 08:03:47 08:07:42 32° 248° (WSW) 08:11:36 436.775 MHz
JAS-2 03 Sep 08:07:03 08:11:24 25° 290° (WNW) 08:16:04 435.800 - 435.900 CW/SSB, 435.910 FM
KITSAT 1 03 Sep 08:31:58 08:40:03 71° 62° (ENE) 08:48:03 435.175 FM
SO-67 03 Sep 08:43:11 08:46:05 26° 286° (WNW) 08:48:59 435.3500 MHz FM
HO-68 03 Sep 08:50:44 08:55:37 19° 95° (E) 09:00:29 435.675 MHz FM
UKube-1 03 Sep 09:22:01 09:23:34 12° 94° (E) 09:25:08 145.840 MHz, 145.915 MHz
ISS 03 Sep 09:32:28 09:35:28 31° 321° (NW) 09:38:28 145.800 FM
PANSAT 03 Sep 10:01:48 10:05:08 27° 165° (SSE) 10:08:28 not established
RS-15 03 Sep 10:14:13 10:21:12 18° 325° (NW) 10:28:12 29.354 - 29.394 USB, Beacon 29.352 USB
KITSAT 1 03 Sep 10:29:14 10:34:36 20° 257° (WSW) 10:39:58 435.175 FM
HO-68 03 Sep 10:36:37 10:43:40 63° 289° (WNW) 10:50:42 435.675 MHz FM
UKube-1 03 Sep 10:55:48 10:59:57 45° 286° (WNW) 11:04:05 145.840 MHz, 145.915 MHz
Oscar 11 03 Sep 10:57:40 11:02:00 68° 284° (WNW) 11:06:19 145.825 FM, Beacon 2401.500 USB
SO-50 03 Sep 11:22:59 11:26:40 21° 53° (NE) 11:30:22 436.795 FM
FUNcube-1 03 Sep 11:33:56 11:38:30 71° 283° (WNW) 11:43:06 145.950 - 145.970 MHz USB
MaSat-1 03 Sep 11:34:29 11:38:13 23° 102° (ESE) 11:42:09 437.345 MHz
PANSAT 03 Sep 11:41:18 11:45:01 45° 178° (S) 11:48:43 not established
Oscar 19 03 Sep 12:27:50 12:28:15 10° 63° (ENE) 12:28:40 437.125 CW, 437.150 USB
Oscar 16 03 Sep 12:59:22 13:03:28 24° 69° (ENE) 13:07:34 437.025 USB, Beacon 2401.1428
UOSAT-12 03 Sep 13:01:15 13:04:14 16° 50° (NE) 13:07:11 437.025 FM, 437.400 FM
SO-50 03 Sep 13:02:52 13:07:19 38° 247° (WSW) 13:11:48 436.795 FM
ITAMSAT 1 03 Sep 13:08:14 13:09:39 11° 63° (ENE) 13:11:05 435.822 SSB
MaSat-1 03 Sep 13:10:32 13:14:57 34° 298° (WNW) 13:19:36 437.345 MHz
Uribyol 2 03 Sep 13:15:38 13:18:26 15° 65° (ENE) 13:21:14 436.500 FM
PANSAT 03 Sep 13:21:22 13:24:56 36° 190° (S) 13:28:30 not established
JAS-1B 03 Sep 13:31:11 13:39:39 36° 67° (ENE) 13:47:20 435.800 - 435.900 CW/SSB
AO-27 03 Sep 13:35:29 13:39:28 23° 68° (ENE) 13:43:27 436.795 MHz FM
AO-Echo 03 Sep 13:57:44 14:02:26 41° 73° (ENE) 14:07:00 ?
Oscar 19 03 Sep 14:01:42 14:06:51 79° 257° (WSW) 14:12:03 437.125 CW, 437.150 USB
Gurwin Techsat 1B 03 Sep 14:25:39 14:30:16 31° 70° (ENE) 14:34:53 435.225 FM
AO-7 03 Sep 14:35:58 14:39:24 13° 53° (NE) 14:42:50 29.400 - 29.500 MHz
Oscar 16 03 Sep 14:38:03 14:42:36 32° 262° (W) 14:47:12 437.025 USB, Beacon 2401.1428
UOSAT-12 03 Sep 14:40:06 14:44:39 50° 246° (WSW) 14:49:06 437.025 FM, 437.400 FM
ITAMSAT 1 03 Sep 14:43:19 14:48:28 73° 258° (WSW) 14:53:38 435.822 SSB
RS-15 03 Sep 14:51:12 14:59:31 23° 40° (NE) 15:07:59 29.354 - 29.394 USB, Beacon 29.352 USB
Uribyol 2 03 Sep 14:52:22 14:57:24 54° 259° (W) 15:02:27 436.500 FM
PANSAT 03 Sep 15:02:19 15:04:41 16° 202° (SSW) 15:07:02 not established
TMSAT-1 03 Sep 15:13:46 15:19:00 69° 75° (ENE) 15:24:16 436.925 FM
AO-27 03 Sep 15:14:05 15:18:44 34° 262° (W) 15:23:25 436.795 MHz FM
Sapphire 03 Sep 15:16:15 15:20:34 25° 107° (ESE) 15:24:54 437.095 MHz 1200 baud AX-25 AFSK
JAS-1B 03 Sep 15:20:17 15:29:45 52° 260° (W) 15:38:24 435.800 - 435.900 CW/SSB
AO-Echo 03 Sep 15:38:06 15:41:17 17° 265° (W) 15:44:25 ?
PCSat 03 Sep 15:44:11 15:49:24 52° 111° (ESE) 15:54:39 145.825 MHz
ISS 03 Sep 16:04:40 16:07:41 31° 39° (NE) 16:10:41 145.800 FM
Gurwin Techsat 1B 03 Sep 16:05:49 16:10:10 26° 264° (W) 16:14:31 435.225 FM
AO-7 03 Sep 16:22:29 16:30:46 75° 71° (ENE) 16:39:04 29.400 - 29.500 MHz
Uosat F 03 Sep 16:29:59 16:34:57 70° 75° (ENE) 16:39:56 435.120 FM
OPAL 03 Sep 16:33:57 16:37:24 18° 96° (E) 16:40:49 ?
TMSAT-1 03 Sep 16:58:04 16:59:18 11° 268° (W) 17:00:33 436.925 FM
Sapphire 03 Sep 16:58:51 17:03:45 35° 301° (WNW) 17:08:41 437.095 MHz 1200 baud AX-25 AFSK
RS-15 03 Sep 17:02:18 17:13:31 87° 63° (ENE) 17:25:14 29.354 - 29.394 USB, Beacon 29.352 USB
PCSat 03 Sep 17:29:22 17:33:05 19° 307° (NW) 17:36:50 145.825 MHz
ISS 03 Sep 17:41:54 17:44:13 18° 232° (SW) 17:46:32 145.800 FM
Hamsat 03 Sep 18:04:26 18:08:40 60° 76° (ENE) 18:12:58 145.90 MHz
OPAL 03 Sep 18:11:28 18:16:25 44° 290° (WNW) 18:21:18 ?
JAS-2 03 Sep 18:13:22 18:19:32 77° 76° (ENE) 18:25:03 435.800 - 435.900 CW/SSB, 435.910 FM
AO-7 03 Sep 18:18:39 18:24:05 19° 265° (W) 18:29:34 29.400 - 29.500 MHz
SO-67 03 Sep 19:11:11 19:14:28 42° 76° (ENE) 19:17:45 435.3500 MHz FM
RS-15 03 Sep 19:17:26 19:24:32 19° 259° (WSW) 19:31:52 29.354 - 29.394 USB, Beacon 29.352 USB
STRAND 1 03 Sep 20:02:04 20:07:09 73° 285° (WNW) 20:12:15 ?
JAS-2 03 Sep 20:03:46 20:04:52 11° 266° (W) 20:05:57 435.800 - 435.900 CW/SSB, 435.910 FM
Saudisat 1A 03 Sep 20:28:06 20:30:33 15° 108° (ESE) 20:33:00 436.775 MHz
HO-68 03 Sep 20:59:37 21:06:37 63° 71° (ENE) 21:13:38 435.675 MHz FM
KITSAT 1 03 Sep 21:04:26 21:08:14 14° 101° (E) 21:12:01 435.175 FM
MaSat-1 03 Sep 21:33:31 21:36:18 17° 56° (NE) 21:38:51 437.345 MHz
UKube-1 03 Sep 21:46:23 21:50:43 84° 76° (ENE) 21:55:04 145.840 MHz, 145.915 MHz
Oscar 11 03 Sep 21:47:59 21:52:11 51° 75° (ENE) 21:56:24 145.825 FM, Beacon 2401.500 USB
Saudisat 1A 03 Sep 22:05:34 22:09:44 41° 302° (WNW) 22:13:55 436.775 MHz
FUNcube-1 03 Sep 22:25:59 22:30:01 50° 75° (ENE) 22:34:10 145.950 - 145.970 MHz USB
HO-68 03 Sep 22:49:48 22:54:39 20° 265° (W) 22:59:33 435.675 MHz FM
KITSAT 1 03 Sep 22:54:25 23:02:31 89° 295° (WNW) 23:10:39 435.175 FM
